Location: Newark
(54.6833°N, 25.2833°E)
Time: 04:52:30
(UTC+00:00)

Altair - Pass Details

Date: 13 November 2019
Orbit: 1502 x 1682 km, 47.2° (Epoch: 14 December)

Event Time Altitude Azimuth Distance (km) Brightness Sun altitude
Rises 10:43:57 0° 281° (W) 4,719 10.1 16.8°
Reaches altitude 10° 10:49:52 10° 253° (WSW) 3,774 10.0 16.7°
Maximum altitude 10:52:44 12° 235° (SW) 3,659 10.4 16.6°
Drops below altitude 10° 10:55:39 10° 217° (SW) 3,814 11.0 16.5°
Sets 11:01:47 0° 188° (S) 4,840 11.9 16.3°
